FW4522 Weather Reports


time (UTC)temp
C
wind
direction
speed
KPH
gust
KPH
rain 1hr
cm
rain 24hr
cm
rain mn
cm
humidity
%
barometer
mb
20260506111536 21 360 12.9 29.0 0.00 0.00 0.00 49 1006.5
20260506110035 21 360 12.9 27.4 0.00 0.00 0.00 50 1006.7
20260506104532 21 360 8.0 27.4 0.00 0.00 0.00 49 1006.7
20260506103030 20 360 6.4 17.7 0.00 0.00 0.00 53 1006.8
20260506101528 20 360 11.3 17.7 0.00 0.00 0.00 54 1007.1
20260506100029 19 360 1.6 8.0 0.00 0.00 0.00 58 1007.2
20260506094527 20 360 1.6 6.4 0.00 0.00 0.00 53 1007.2
20260506093026 20 360 8.0 22.5 0.00 0.00 0.00 53 1007.4
20260506091524 19 360 6.4 14.5 0.00 0.00 0.00 55 1007.7
20260506090038 19 360 8.0 12.9 0.00 0.00 0.00 59 1007.7
20260506084523 18 360 1.6 9.7 0.00 0.00 0.00 60 1007.6
20260506083019 18 360 3.2 9.7 0.00 0.00 0.00 61 1007.8
20260506081516 17 360 3.2 8.0 0.00 0.00 0.00 68 1007.9
20260506073009 16 360 3.2 8.0 0.00 0.00 0.00 68 1008.1
20260506071508 16 360 0.0 12.9 0.00 0.00 0.00 69 1008.3
20260506061501 14 360 11.3 16.1 0.00 0.00 0.00 73 1008.4
20260506050108 9 360 0.0 1.6 0.00 0.00 0.00 90 1008.5
20260506044553 8 360 0.0 0.0 0.00 0.00 0.00 91 1008.5
20260506043059 6 360 0.0 0.0 0.00 0.00 0.00 90 1008.5
20260506041552 6 360 0.0 0.0 0.00 0.00 0.00 88 1008.0
20260506040101 6 360 0.0 0.0 0.00 0.00 0.00 88 1007.8
20260506034556 6 360 0.0 0.0 0.00 0.00 0.00 88 1007.7
20260506033050 6 360 0.0 0.0 0.00 0.00 0.00 86 1007.6
20260506031550 6 360 0.0 0.0 0.00 0.00 0.00 85 1007.5
20260506030045 7 360 0.0 0.0 0.00 0.00 0.00 84 1007.6
20260506024546 9 360 0.0 0.0 0.00 0.00 0.00 85 1007.7
20260506023036 10 360 0.0 4.8 0.00 0.00 0.00 86 1007.7
20260506021538 10 360 0.0 3.2 0.00 0.00 0.00 86 1007.7
20260506020033 10 360 3.2 8.0 0.00 0.00 0.00 85 1007.8
20260506014532 10 360 4.8 8.0 0.00 0.00 0.00 86 1007.8
20260506013031 10 360 3.2 6.4 0.00 0.00 0.00 86 1007.8
20260506011536 10 360 1.6 6.4 0.00 0.00 0.00 85 1007.7
20260506010029 10 360 3.2 8.0 0.00 0.00 0.00 85 1007.8
20260506004526 11 360 6.4 14.5 0.00 0.00 0.00 84 1007.7
20260506003023 11 360 6.4 12.9 0.00 0.00 0.00 84 1007.7
20260506001521 11 360 6.4 12.9 0.00 0.00 0.00 83 1007.6
20260506000017 12 360 14.5 22.5 0.00 0.00 0.00 81 1007.4
20260505234519 12 360 12.9 17.7 0.00 0.00 0.00 81 1007.3
20260505233011 13 360 9.7 16.1 0.00 0.00 0.00 79 1007.2
20260505231511 13 360 9.7 17.7 0.00 0.00 0.00 77 1006.9
20260505230009 14 360 9.7 17.7 0.00 0.00 0.00 76 1006.7
20260505224507 14 360 11.3 22.5 0.00 0.00 0.00 75 1006.7
20260505223004 15 360 16.1 29.0 0.00 0.00 0.00 74 1006.8
20260505221501 15 360 17.7 29.0 0.00 0.00 0.00 70 1006.7
20260505220058 16 360 14.5 25.7 0.00 0.00 0.00 69 1006.2
20260505214616 16 360 19.3 35.4 0.00 0.00 0.00 68 1006.1
20260505213103 16 360 22.5 35.4 0.00 0.00 0.00 66 1006.3
20260505211606 16 360 20.9 40.2 0.00 0.00 0.00 65 1006.2
20260505210056 17 360 24.1 41.8 0.00 0.00 0.00 63 1006.1
20260505204555 17 360 17.7 30.6 0.00 0.00 0.00 63 1005.8
20260505203054 17 360 22.5 37.0 0.00 0.00 0.00 63 1005.6
20260505201557 17 360 16.1 27.4 0.00 0.00 0.00 63 1005.2
20260505194556 15 360 0.0 0.0 0.00 0.00 0.00 74 1004.4
20260505193053 15 360 0.0 0.0 0.00 0.00 0.00 73 1004.2
20260505191552 16 360 0.0 0.0 0.00 0.00 0.00 71 1004.1
20260505190051 16 360 0.0 1.6 0.00 0.00 0.00 70 1004.1
20260505184551 17 360 0.0 0.0 0.00 0.00 0.00 69 1003.9
20260505183103 17 360 0.0 0.0 0.00 0.00 0.00 66 1003.9
20260505181553 18 360 0.0 3.2 0.00 0.00 0.00 64 1003.8
20260505180055 19 360 0.0 1.6 0.00 0.00 0.00 61 1003.8
20260505174558 20 360 0.0 1.6 0.00 0.00 0.00 54 1003.8
20260505173051 21 360 0.0 0.0 0.00 0.00 0.00 51 1003.9
20260505171551 22 360 0.0 6.4 0.00 0.00 0.00 46 1003.9
20260505170049 22 360 3.2 6.4 0.00 0.00 0.00 41 1003.9
20260505164549 23 360 3.2 9.7 0.00 0.00 0.00 40 1004.0
20260505163048 23 360 3.2 8.0 0.00 0.00 0.00 39 1004.2
20260505161546 23 360 6.4 16.1 0.00 0.00 0.00 38 1004.3
20260505153043 24 360 6.4 17.7 0.00 0.00 0.00 37 1004.7
20260505151542 23 360 6.4 16.1 0.00 0.00 0.00 36 1004.9
20260505124533 21 360 8.0 19.3 0.00 0.00 0.00 48 1006.7
20260505123029 21 360 3.2 20.9 0.00 0.00 0.00 50 1006.9
20260505121534 22 360 4.8 19.3 0.00 0.00 0.00 49 1006.9
20260505120037 22 360 6.4 16.1 0.00 0.00 0.00 47 1007.1
20260505114523 22 360 8.0 19.3 0.00 0.00 0.00 45 1007.1
20260505113022 23 360 9.7 17.7 0.00 0.00 0.00 44 1007.1